Time,TemperatureF,DewpointF,PressureIn,WindDirection,WindDirectionDegrees,WindSpeedMPH,WindSpeedGustMPH,Humidity,HourlyPrecipIn,Conditions,Clouds,dailyrainin,SoftwareType,DateUTC
2013-03-28 00:02:00,55.7,45.3,30.17,SE,144,12.0,12.0,68,0.00,,,0.00,Wunderground v.1.15,2013-03-28 05:02:00,
2013-03-28 00:12:00,55.5,45.5,30.16,SSE,149,13.0,13.0,69,0.00,,,0.00,Wunderground v.1.15,2013-03-28 05:12:00,
2013-03-28 00:17:00,55.3,45.7,30.17,SE,146,13.0,13.0,70,0.00,,,0.00,Wunderground v.1.15,2013-03-28 05:17:00,
2013-03-28 00:22:00,55.3,45.7,30.17,SE,139,12.0,12.0,70,0.00,,,0.00,Wunderground v.1.15,2013-03-28 05:22:00,
2013-03-28 00:27:00,55.0,45.8,30.16,SSE,153,12.0,12.0,71,0.00,,,0.00,Wunderground v.1.15,2013-03-28 05:27:00,
2013-03-28 00:32:00,54.8,45.6,30.16,SE,145,12.0,13.0,71,0.00,,,0.00,Wunderground v.1.15,2013-03-28 05:32:00,
2013-03-28 00:42:00,54.5,45.7,30.16,SSE,149,11.0,11.0,72,0.00,,,0.00,Wunderground v.1.15,2013-03-28 05:42:00,
2013-03-28 00:47:00,54.3,45.8,30.16,SE,128,10.0,11.0,73,0.00,,,0.00,Wunderground v.1.15,2013-03-28 05:47:00,
2013-03-28 00:52:00,54.2,45.7,30.15,SE,141,11.0,11.0,73,0.00,,,0.00,Wunderground v.1.15,2013-03-28 05:52:00,
2013-03-28 00:57:00,54.0,45.9,30.16,SE,144,10.0,20.0,74,0.00,,,0.00,Wunderground v.1.15,2013-03-28 05:57:00,
2013-03-28 01:02:00,53.9,45.8,30.16,SE,143,9.0,20.0,74,0.00,,,0.00,Wunderground v.1.15,2013-03-28 06:02:00,
2013-03-28 01:07:00,53.7,46.0,30.16,SSE,155,9.0,20.0,75,0.00,,,0.00,Wunderground v.1.15,2013-03-28 06:07:00,
2013-03-28 01:12:00,53.7,46.0,30.15,SSE,153,10.0,10.0,75,0.00,,,0.00,Wunderground v.1.15,2013-03-28 06:12:00,
2013-03-28 01:17:00,53.5,46.1,30.15,SE,140,10.0,20.0,76,0.00,,,0.00,Wunderground v.1.15,2013-03-28 06:17:00,
2013-03-28 01:22:00,53.4,46.4,30.15,SE,141,10.0,20.0,77,0.00,,,0.00,Wunderground v.1.15,2013-03-28 06:22:00,
2013-03-28 01:27:00,53.4,46.4,30.16,SE,134,10.0,20.0,77,0.00,,,0.00,Wunderground v.1.15,2013-03-28 06:27:00,
2013-03-28 01:32:00,53.4,46.4,30.16,SE,146,10.0,10.0,77,0.00,,,0.00,Wunderground v.1.15,2013-03-28 06:32:00,
2013-03-28 01:37:00,53.3,46.3,30.16,SE,144,10.0,20.0,77,0.00,,,0.00,Wunderground v.1.15,2013-03-28 06:37:00,
2013-03-28 01:47:00,53.0,46.3,30.15,SSE,149,9.0,20.0,78,0.00,,,0.00,Wunderground v.1.15,2013-03-28 06:47:00,
2013-03-28 01:52:00,52.9,46.6,30.16,SE,143,9.0,9.0,79,0.00,,,0.00,Wunderground v.1.15,2013-03-28 06:52:00,
2013-03-28 01:57:00,52.8,46.5,30.15,SSE,150,9.0,20.0,79,0.00,,,0.00,Wunderground v.1.15,2013-03-28 06:57:00,
2013-03-28 02:02:00,52.6,46.6,30.15,SE,132,9.0,9.0,80,0.00,,,0.00,Wunderground v.1.15,2013-03-28 07:02:00,
2013-03-28 02:07:00,52.4,46.4,30.15,SE,145,9.0,20.0,80,0.00,,,0.00,Wunderground v.1.15,2013-03-28 07:07:00,
2013-03-28 02:12:00,52.4,46.7,30.15,South,172,8.0,20.0,81,0.00,,,0.00,Wunderground v.1.15,2013-03-28 07:12:00,
2013-03-28 02:17:00,52.3,46.6,30.15,SE,142,8.0,20.0,81,0.00,,,0.00,Wunderground v.1.15,2013-03-28 07:17:00,
2013-03-28 02:22:00,52.2,46.9,30.15,SE,141,8.0,20.0,82,0.00,,,0.00,Wunderground v.1.15,2013-03-28 07:22:00,
2013-03-28 02:27:00,52.2,46.9,30.15,SE,134,8.0,20.0,82,0.00,,,0.00,Wunderground v.1.15,2013-03-28 07:27:00,
2013-03-28 02:32:00,52.0,46.7,30.15,SE,130,8.0,20.0,82,0.00,,,0.00,Wunderground v.1.15,2013-03-28 07:32:00,
2013-03-28 02:37:00,51.8,46.8,30.15,SE,132,7.0,20.0,83,0.00,,,0.00,Wunderground v.1.15,2013-03-28 07:37:00,
2013-03-28 02:42:00,51.5,46.5,30.15,SE,137,7.0,7.0,83,0.00,,,0.00,Wunderground v.1.15,2013-03-28 07:42:00,
2013-03-28 02:52:00,51.0,46.3,30.15,SE,136,6.0,20.0,84,0.00,,,0.00,Wunderground v.1.15,2013-03-28 07:52:00,
2013-03-28 02:57:00,51.0,46.6,30.15,SE,128,6.0,20.0,85,0.00,,,0.00,Wunderground v.1.15,2013-03-28 07:57:00,
2013-03-28 03:02:00,50.8,46.5,30.15,SE,126,5.0,20.0,85,0.00,,,0.00,Wunderground v.1.15,2013-03-28 08:02:00,
2013-03-28 03:07:00,50.5,46.2,30.15,SE,130,5.0,20.0,85,0.00,,,0.00,Wunderground v.1.15,2013-03-28 08:07:00,
2013-03-28 03:12:00,50.2,46.2,30.15,SE,133,5.0,5.0,86,0.00,,,0.00,Wunderground v.1.15,2013-03-28 08:12:00,
2013-03-28 03:22:00,50.1,46.4,30.15,SE,136,5.0,20.0,87,0.00,,,0.00,Wunderground v.1.15,2013-03-28 08:22:00,
2013-03-28 03:27:00,49.9,46.2,30.15,SE,132,5.0,20.0,87,0.00,,,0.00,Wunderground v.1.15,2013-03-28 08:27:00,
2013-03-28 03:32:00,49.8,46.4,30.14,SE,125,5.0,5.0,88,0.00,,,0.00,Wunderground v.1.15,2013-03-28 08:32:00,
2013-03-28 03:37:00,49.7,46.3,30.15,SE,127,4.0,20.0,88,0.00,,,0.00,Wunderground v.1.15,2013-03-28 08:37:00,
2013-03-28 03:42:00,49.8,46.7,30.15,SE,127,4.0,20.0,89,0.00,,,0.00,Wunderground v.1.15,2013-03-28 08:42:00,
2013-03-28 03:47:00,50.0,46.9,30.14,SE,125,4.0,20.0,89,0.00,,,0.00,Wunderground v.1.15,2013-03-28 08:47:00,
2013-03-28 03:57:00,49.7,46.6,30.14,SE,130,5.0,20.0,89,0.00,,,0.00,Wunderground v.1.15,2013-03-28 08:57:00,
2013-03-28 04:02:00,49.7,46.9,30.14,SE,126,6.0,20.0,90,0.00,,,0.00,Wunderground v.1.15,2013-03-28 09:02:00,
2013-03-28 04:07:00,49.7,46.9,30.14,ESE,120,6.0,20.0,90,0.00,,,0.00,Wunderground v.1.15,2013-03-28 09:07:00,
2013-03-28 04:12:00,49.8,47.0,30.14,SE,127,6.0,6.0,90,0.00,,,0.00,Wunderground v.1.15,2013-03-28 09:12:00,
2013-03-28 04:17:00,49.9,47.1,30.14,ESE,120,6.0,20.0,90,0.00,,,0.00,Wunderground v.1.15,2013-03-28 09:17:00,
2013-03-28 04:22:00,49.9,47.4,30.14,ESE,119,5.0,5.0,91,0.00,,,0.00,Wunderground v.1.15,2013-03-28 09:22:00,
2013-03-28 04:27:00,50.0,47.5,30.14,ESE,111,5.0,20.0,91,0.00,,,0.00,Wunderground v.1.15,2013-03-28 09:27:00,
2013-03-28 04:32:00,50.2,47.7,30.14,ESE,109,5.0,20.0,91,0.00,,,0.00,Wunderground v.1.15,2013-03-28 09:32:00,
2013-03-28 04:37:00,50.2,47.4,30.14,ESE,105,5.0,20.0,90,0.00,,,0.00,Wunderground v.1.15,2013-03-28 09:37:00,
2013-03-28 04:42:00,50.3,47.8,30.14,SE,127,5.0,20.0,91,0.00,,,0.00,Wunderground v.1.15,2013-03-28 09:42:00,
2013-03-28 04:47:00,50.4,47.9,30.14,ESE,120,5.0,20.0,91,0.00,,,0.00,Wunderground v.1.15,2013-03-28 09:47:00,
2013-03-28 04:57:00,51.1,48.0,30.14,East,89,5.0,20.0,89,0.00,,,0.00,Wunderground v.1.15,2013-03-28 09:57:00,
2013-03-28 05:02:00,50.9,48.1,30.14,ESE,115,5.0,20.0,90,0.00,,,0.00,Wunderground v.1.15,2013-03-28 10:02:00,
2013-03-28 05:07:00,51.1,48.6,30.14,ESE,113,6.0,20.0,91,0.00,,,0.00,Wunderground v.1.15,2013-03-28 10:07:00,
2013-03-28 05:12:00,51.4,48.6,30.14,ESE,123,6.0,20.0,90,0.00,,,0.00,Wunderground v.1.15,2013-03-28 10:12:00,
2013-03-28 05:17:00,51.7,48.9,30.14,SE,128,6.0,20.0,90,0.00,,,0.00,Wunderground v.1.15,2013-03-28 10:17:00,
2013-03-28 05:22:00,51.9,49.1,30.14,ESE,119,7.0,20.0,90,0.00,,,0.00,Wunderground v.1.15,2013-03-28 10:22:00,
2013-03-28 05:32:00,52.1,49.0,30.14,ESE,111,7.0,20.0,89,0.00,,,0.00,Wunderground v.1.15,2013-03-28 10:32:00,
2013-03-28 05:37:00,52.1,49.0,30.14,ESE,119,6.0,20.0,89,0.00,,,0.00,Wunderground v.1.15,2013-03-28 10:37:00,
2013-03-28 05:42:00,52.1,49.0,30.14,ESE,119,6.0,6.0,89,0.00,,,0.00,Wunderground v.1.15,2013-03-28 10:42:00,
2013-03-28 05:47:00,52.2,49.1,30.15,SE,126,6.0,20.0,89,0.00,,,0.00,Wunderground v.1.15,2013-03-28 10:47:00,
2013-03-28 05:52:00,52.3,49.2,30.15,ESE,115,5.0,20.0,89,0.00,,,0.00,Wunderground v.1.15,2013-03-28 10:52:00,
2013-03-28 06:02:00,52.5,49.4,30.15,ESE,116,5.0,20.0,89,0.00,,,0.00,Wunderground v.1.15,2013-03-28 11:02:00,
2013-03-28 06:07:00,52.8,49.6,30.15,ESE,121,6.0,20.0,89,0.00,,,0.00,Wunderground v.1.15,2013-03-28 11:07:00,
2013-03-28 06:12:00,52.9,49.7,30.15,ESE,113,5.0,5.0,89,0.00,,,0.00,Wunderground v.1.15,2013-03-28 11:12:00,
2013-03-28 06:17:00,53.1,49.6,30.16,ESE,102,5.0,7.0,88,0.00,,,0.00,Wunderground v.1.15,2013-03-28 11:17:00,
2013-03-28 06:22:00,53.2,49.7,30.15,ESE,123,6.0,20.0,88,0.00,,,0.00,Wunderground v.1.15,2013-03-28 11:22:00,
2013-03-28 06:27:00,53.3,49.8,30.15,ESE,108,6.0,20.0,88,0.00,,,0.00,Wunderground v.1.15,2013-03-28 11:27:00,
2013-03-28 06:37:00,53.4,49.9,30.16,SE,126,7.0,20.0,88,0.00,,,0.00,Wunderground v.1.15,2013-03-28 11:37:00,
2013-03-28 06:42:00,53.5,50.0,30.16,SE,128,8.0,20.0,88,0.00,,,0.00,Wunderground v.1.15,2013-03-28 11:42:00,
2013-03-28 06:47:00,53.6,50.1,30.16,ESE,111,8.0,20.0,88,0.00,,,0.00,Wunderground v.1.15,2013-03-28 11:47:00,
2013-03-28 06:52:00,53.6,50.1,30.17,ESE,120,8.0,8.0,88,0.00,,,0.00,Wunderground v.1.15,2013-03-28 11:52:00,
2013-03-28 07:02:00,53.6,50.1,30.17,ESE,116,7.0,7.0,88,0.00,,,0.00,Wunderground v.1.15,2013-03-28 12:02:00,
2013-03-28 07:07:00,53.6,50.1,30.17,ESE,110,7.0,10.0,88,0.00,,,0.00,Wunderground v.1.15,2013-03-28 12:07:00,
2013-03-28 07:12:00,53.6,50.1,30.17,ESE,122,8.0,8.0,88,0.00,,,0.00,Wunderground v.1.15,2013-03-28 12:12:00,
2013-03-28 07:17:00,53.6,50.1,30.17,ESE,123,8.0,8.0,88,0.00,,,0.00,Wunderground v.1.15,2013-03-28 12:17:00,
2013-03-28 07:22:00,53.6,50.1,30.17,ESE,116,7.0,7.0,88,0.00,,,0.00,Wunderground v.1.15,2013-03-28 12:22:00,
2013-03-28 07:27:00,53.6,50.1,30.17,ESE,120,8.0,8.0,88,0.00,,,0.00,Wunderground v.1.15,2013-03-28 12:27:00,
2013-03-28 07:32:00,53.6,50.1,30.18,ESE,120,8.0,8.0,88,0.00,,,0.00,Wunderground v.1.15,2013-03-28 12:32:00,
2013-03-28 07:37:00,53.7,50.2,30.18,SE,124,8.0,8.0,88,0.00,,,0.00,Wunderground v.1.15,2013-03-28 12:37:00,
2013-03-28 07:42:00,53.7,50.2,30.18,ESE,115,8.0,8.0,88,0.00,,,0.00,Wunderground v.1.15,2013-03-28 12:42:00,
2013-03-28 07:47:00,53.8,50.3,30.18,ESE,120,8.0,9.0,88,0.00,,,0.00,Wunderground v.1.15,2013-03-28 12:47:00,
2013-03-28 07:52:00,53.8,50.3,30.18,ESE,123,8.0,8.0,88,0.00,,,0.00,Wunderground v.1.15,2013-03-28 12:52:00,
2013-03-28 08:02:00,53.9,50.4,30.18,ESE,119,9.0,9.0,88,0.00,,,0.00,Wunderground v.1.15,2013-03-28 13:02:00,
2013-03-28 08:12:00,54.2,50.7,30.18,SE,124,8.0,10.0,88,0.00,,,0.00,Wunderground v.1.15,2013-03-28 13:12:00,
2013-03-28 08:17:00,54.2,50.7,30.18,ESE,103,8.0,10.0,88,0.00,,,0.00,Wunderground v.1.15,2013-03-28 13:17:00,
2013-03-28 08:22:00,53.7,49.9,30.18,East,98,7.0,7.0,87,0.00,,,0.00,Wunderground v.1.15,2013-03-28 13:22:00,
2013-03-28 08:27:00,53.6,50.4,30.18,ESE,102,6.0,7.0,89,0.00,,,0.00,Wunderground v.1.15,2013-03-28 13:27:00,
2013-03-28 08:32:00,53.7,50.5,30.18,ESE,111,6.0,6.0,89,0.00,,,0.00,Wunderground v.1.15,2013-03-28 13:32:00,
2013-03-28 08:42:00,54.4,51.2,30.19,SE,132,8.0,8.0,89,0.00,,,0.00,Wunderground v.1.15,2013-03-28 13:42:00,
2013-03-28 08:47:00,54.8,51.3,30.19,SE,137,9.0,9.0,88,0.00,,,0.00,Wunderground v.1.15,2013-03-28 13:47:00,
2013-03-28 08:52:00,55.1,51.6,30.19,SE,125,9.0,12.0,88,0.00,,,0.00,Wunderground v.1.15,2013-03-28 13:52:00,
2013-03-28 09:02:00,55.4,51.9,30.19,SE,136,10.0,10.0,88,0.00,,,0.00,Wunderground v.1.15,2013-03-28 14:02:00,
2013-03-28 09:07:00,55.6,51.8,30.19,ESE,120,9.0,10.0,87,0.00,,,0.00,Wunderground v.1.15,2013-03-28 14:07:00,
2013-03-28 09:12:00,55.8,52.0,30.19,ESE,123,9.0,12.0,87,0.00,,,0.00,Wunderground v.1.15,2013-03-28 14:12:00,
2013-03-28 09:17:00,55.7,51.9,30.19,SE,136,11.0,12.0,87,0.00,,,0.00,Wunderground v.1.15,2013-03-28 14:17:00,
2013-03-28 09:22:00,55.9,52.1,30.19,SE,128,10.0,10.0,87,0.00,,,0.00,Wunderground v.1.15,2013-03-28 14:22:00,
2013-03-28 09:27:00,56.0,52.2,30.19,ESE,120,10.0,10.0,87,0.00,,,0.00,Wunderground v.1.15,2013-03-28 14:27:00,
2013-03-28 09:37:00,56.4,52.6,30.19,SE,127,10.0,12.0,87,0.00,,,0.00,Wunderground v.1.15,2013-03-28 14:37:00,
2013-03-28 09:42:00,56.5,52.7,30.20,SE,130,10.0,10.0,87,0.00,,,0.00,Wunderground v.1.15,2013-03-28 14:42:00,
2013-03-28 09:47:00,56.8,53.0,30.19,ESE,120,11.0,11.0,87,0.00,,,0.00,Wunderground v.1.15,2013-03-28 14:47:00,
2013-03-28 09:52:00,57.2,53.0,30.20,SE,132,10.0,11.0,86,0.00,,,0.00,Wunderground v.1.15,2013-03-28 14:52:00,
2013-03-28 10:02:00,57.8,53.6,30.19,SE,140,10.0,10.0,86,0.00,,,0.00,Wunderground v.1.15,2013-03-28 15:02:00,
2013-03-28 10:07:00,57.9,53.7,30.20,SE,146,11.0,14.0,86,0.00,,,0.00,Wunderground v.1.15,2013-03-28 15:07:00,
2013-03-28 10:17:00,58.4,53.9,30.20,SE,137,14.0,15.0,85,0.00,,,0.00,Wunderground v.1.15,2013-03-28 15:17:00,
2013-03-28 10:22:00,58.8,54.3,30.19,ESE,115,13.0,16.0,85,0.00,,,0.00,Wunderground v.1.15,2013-03-28 15:22:00,
2013-03-28 10:27:00,59.1,54.3,30.20,SE,130,13.0,16.0,84,0.00,,,0.00,Wunderground v.1.15,2013-03-28 15:27:00,
2013-03-28 10:32:00,59.3,54.5,30.20,SE,132,14.0,14.0,84,0.00,,,0.00,Wunderground v.1.15,2013-03-28 15:32:00,
2013-03-28 10:37:00,59.7,54.5,30.20,SSE,149,13.0,14.0,83,0.00,,,0.00,Wunderground v.1.15,2013-03-28 15:37:00,
2013-03-28 10:42:00,60.1,54.6,30.20,SE,132,12.0,13.0,82,0.00,,,0.00,Wunderground v.1.15,2013-03-28 15:42:00,
2013-03-28 10:52:00,60.2,55.0,30.20,SE,127,14.0,14.0,83,0.00,,,0.00,Wunderground v.1.15,2013-03-28 15:52:00,
2013-03-28 11:02:00,60.7,55.2,30.20,SE,140,14.0,16.0,82,0.00,,,0.00,Wunderground v.1.15,2013-03-28 16:02:00,
2013-03-28 11:07:00,61.0,55.5,30.20,SE,142,16.0,21.0,82,0.00,,,0.00,Wunderground v.1.15,2013-03-28 16:07:00,
2013-03-28 11:12:00,61.1,55.2,30.20,SE,130,18.0,18.0,81,0.00,,,0.00,Wunderground v.1.15,2013-03-28 16:12:00,
2013-03-28 11:17:00,61.3,55.4,30.20,SE,139,17.0,18.0,81,0.00,,,0.00,Wunderground v.1.15,2013-03-28 16:17:00,
2013-03-28 11:22:00,61.7,55.8,30.20,SE,138,16.0,16.0,81,0.00,,,0.00,Wunderground v.1.15,2013-03-28 16:22:00,
2013-03-28 11:27:00,62.2,56.0,30.20,SSE,168,15.0,18.0,80,0.00,,,0.00,Wunderground v.1.15,2013-03-28 16:27:00,
2013-03-28 11:32:00,62.5,55.9,30.19,South,179,15.0,20.0,79,0.00,,,0.00,Wunderground v.1.15,2013-03-28 16:32:00,
2013-03-28 11:37:00,63.2,56.6,30.19,South,170,17.0,21.0,79,0.00,,,0.00,Wunderground v.1.15,2013-03-28 16:37:00,
2013-03-28 11:42:00,63.5,56.5,30.19,SSE,158,19.0,19.0,78,0.00,,,0.00,Wunderground v.1.15,2013-03-28 16:42:00,
2013-03-28 11:52:00,63.6,56.3,30.19,SE,140,18.0,18.0,77,0.00,,,0.00,Wunderground v.1.15,2013-03-28 16:52:00,
2013-03-28 12:02:00,63.6,56.3,30.18,SSE,164,18.0,19.0,77,0.00,,,0.00,Wunderground v.1.15,2013-03-28 17:02:00,
2013-03-28 12:07:00,63.5,56.2,30.18,SE,139,17.0,19.0,77,0.00,,,0.00,Wunderground v.1.15,2013-03-28 17:07:00,
2013-03-28 12:12:00,63.8,56.4,30.18,SE,137,18.0,18.0,77,0.00,,,0.00,Wunderground v.1.15,2013-03-28 17:12:00,
2013-03-28 12:17:00,63.8,56.4,30.19,SSE,149,18.0,18.0,77,0.00,,,0.00,Wunderground v.1.15,2013-03-28 17:17:00,
2013-03-28 12:27:00,63.9,56.5,30.18,SSE,147,18.0,18.0,77,0.00,,,0.00,Wunderground v.1.15,2013-03-28 17:27:00,
2013-03-28 12:32:00,63.7,56.4,30.18,South,179,17.0,18.0,77,0.00,,,0.00,Wunderground v.1.15,2013-03-28 17:32:00,
2013-03-28 12:37:00,63.6,56.6,30.18,SE,132,18.0,19.0,78,0.00,,,0.00,Wunderground v.1.15,2013-03-28 17:37:00,
2013-03-28 12:42:00,63.4,56.1,30.18,SE,139,17.0,17.0,77,0.00,,,0.00,Wunderground v.1.15,2013-03-28 17:42:00,
2013-03-28 12:47:00,63.7,56.7,30.18,SSE,153,16.0,17.0,78,0.00,,,0.00,Wunderground v.1.15,2013-03-28 17:47:00,
2013-03-28 12:52:00,63.6,56.6,30.18,SSE,149,16.0,18.0,78,0.00,,,0.00,Wunderground v.1.15,2013-03-28 17:52:00,
2013-03-28 13:02:00,63.5,56.2,30.18,SSE,156,17.0,18.0,77,0.00,,,0.00,Wunderground v.1.15,2013-03-28 18:02:00,
2013-03-28 13:07:00,63.8,56.8,30.18,SSE,151,16.0,18.0,78,0.00,,,0.00,Wunderground v.1.15,2013-03-28 18:07:00,
2013-03-28 13:12:00,64.0,56.6,30.18,SSE,157,15.0,19.0,77,0.00,,,0.00,Wunderground v.1.15,2013-03-28 18:12:00,
2013-03-28 13:17:00,64.1,56.4,30.18,SE,130,16.0,19.0,76,0.00,,,0.00,Wunderground v.1.15,2013-03-28 18:17:00,
2013-03-28 13:22:00,64.2,56.8,30.18,SSE,158,15.0,15.0,77,0.00,,,0.00,Wunderground v.1.15,2013-03-28 18:22:00,
2013-03-28 13:32:00,64.6,56.9,30.17,SSE,153,16.0,20.0,76,0.00,,,0.00,Wunderground v.1.15,2013-03-28 18:32:00,
2013-03-28 13:37:00,64.6,56.9,30.17,SSE,149,16.0,20.0,76,0.00,,,0.00,Wunderground v.1.15,2013-03-28 18:37:00,
2013-03-28 13:42:00,64.9,57.2,30.16,SE,129,15.0,18.0,76,0.00,,,0.00,Wunderground v.1.15,2013-03-28 18:42:00,
2013-03-28 13:47:00,64.8,57.1,30.16,SE,146,16.0,18.0,76,0.00,,,0.00,Wunderground v.1.15,2013-03-28 18:47:00,
2013-03-28 13:52:00,65.2,57.4,30.16,SE,143,16.0,16.0,76,0.00,,,0.00,Wunderground v.1.15,2013-03-28 18:52:00,
2013-03-28 14:02:00,66.3,58.1,30.15,SE,140,15.0,23.0,75,0.00,,,0.00,Wunderground v.1.15,2013-03-28 19:02:00,
2013-03-28 14:07:00,67.1,57.4,30.15,SE,132,18.0,23.0,71,0.00,,,0.00,Wunderground v.1.15,2013-03-28 19:07:00,
2013-03-28 14:12:00,67.6,58.2,30.15,SE,136,19.0,19.0,72,0.00,,,0.00,Wunderground v.1.15,2013-03-28 19:12:00,
2013-03-28 14:17:00,67.8,57.7,30.15,SE,133,19.0,22.0,70,0.00,,,0.00,Wunderground v.1.15,2013-03-28 19:17:00,
2013-03-28 14:22:00,67.8,57.3,30.15,SSE,157,20.0,20.0,69,0.00,,,0.00,Wunderground v.1.15,2013-03-28 19:22:00,
2013-03-28 14:27:00,67.9,57.4,30.14,SSE,158,21.0,21.0,69,0.00,,,0.00,Wunderground v.1.15,2013-03-28 19:27:00,
2013-03-28 14:32:00,68.1,57.5,30.15,SE,141,21.0,21.0,69,0.00,,,0.00,Wunderground v.1.15,2013-03-28 19:32:00,
2013-03-28 14:37:00,68.4,57.4,30.14,SE,133,19.0,23.0,68,0.00,,,0.00,Wunderground v.1.15,2013-03-28 19:37:00,
2013-03-28 14:42:00,68.4,57.0,30.15,South,179,19.0,19.0,67,0.00,,,0.00,Wunderground v.1.15,2013-03-28 19:42:00,
2013-03-28 14:47:00,68.4,57.4,30.14,SE,139,19.0,23.0,68,0.00,,,0.00,Wunderground v.1.15,2013-03-28 19:47:00,
2013-03-28 14:52:00,68.4,57.0,30.14,SE,138,18.0,18.0,67,0.00,,,0.00,Wunderground v.1.15,2013-03-28 19:52:00,
2013-03-28 15:07:00,68.6,57.2,30.14,SSE,151,17.0,21.0,67,0.00,,,0.00,Wunderground v.1.15,2013-03-28 20:07:00,
2013-03-28 15:12:00,68.7,57.3,30.13,SE,142,18.0,18.0,67,0.00,,,0.00,Wunderground v.1.15,2013-03-28 20:12:00,
2013-03-28 15:22:00,69.2,56.9,30.13,SE,136,16.0,18.0,65,0.00,,,0.00,Wunderground v.1.15,2013-03-28 20:22:00,
2013-03-28 15:27:00,69.1,56.8,30.12,SSE,160,18.0,18.0,65,0.00,,,0.00,Wunderground v.1.15,2013-03-28 20:27:00,
2013-03-28 15:32:00,69.2,56.9,30.12,SSE,165,19.0,19.0,65,0.00,,,0.00,Wunderground v.1.15,2013-03-28 20:32:00,
2013-03-28 15:42:00,69.5,56.8,30.12,SSE,151,17.0,17.0,64,0.00,,,0.00,Wunderground v.1.15,2013-03-28 20:42:00,
2013-03-28 15:47:00,69.7,57.0,30.12,SE,140,15.0,17.0,64,0.00,,,0.00,Wunderground v.1.15,2013-03-28 20:47:00,
2013-03-28 15:52:00,69.5,57.6,30.12,ESE,116,14.0,14.0,66,0.00,,,0.00,Wunderground v.1.15,2013-03-28 20:52:00,
2013-03-28 16:02:00,69.8,57.9,30.11,SSE,149,14.0,15.0,66,0.00,,,0.00,Wunderground v.1.15,2013-03-28 21:02:00,
2013-03-28 16:12:00,69.8,57.1,30.11,SE,137,14.0,14.0,64,0.00,,,0.00,Wunderground v.1.15,2013-03-28 21:12:00,
2013-03-28 16:17:00,69.9,57.2,30.11,SE,139,15.0,16.0,64,0.00,,,0.00,Wunderground v.1.15,2013-03-28 21:17:00,
2013-03-28 16:22:00,70.5,56.9,30.11,SSE,149,15.0,16.0,62,0.00,,,0.00,Wunderground v.1.15,2013-03-28 21:22:00,
2013-03-28 16:27:00,70.3,57.1,30.11,SE,142,15.0,16.0,63,0.00,,,0.00,Wunderground v.1.15,2013-03-28 21:27:00,
2013-03-28 16:32:00,70.3,56.7,30.11,South,176,15.0,15.0,62,0.00,,,0.00,Wunderground v.1.15,2013-03-28 21:32:00,
2013-03-28 16:37:00,70.5,56.9,30.11,SE,144,15.0,16.0,62,0.00,,,0.00,Wunderground v.1.15,2013-03-28 21:37:00,
2013-03-28 16:47:00,70.5,56.9,30.11,SE,145,16.0,17.0,62,0.00,,,0.00,Wunderground v.1.15,2013-03-28 21:47:00,
2013-03-28 16:52:00,70.5,56.9,30.11,SSE,160,16.0,18.0,62,0.00,,,0.00,Wunderground v.1.15,2013-03-28 21:52:00,
2013-03-28 17:02:00,70.3,56.7,30.11,SSE,153,17.0,17.0,62,0.00,,,0.00,Wunderground v.1.15,2013-03-28 22:02:00,
2013-03-28 17:07:00,70.3,56.2,30.11,South,177,17.0,18.0,61,0.00,,,0.00,Wunderground v.1.15,2013-03-28 22:07:00,
2013-03-28 17:17:00,70.7,56.6,30.11,South,176,17.0,22.0,61,0.00,,,0.00,Wunderground v.1.15,2013-03-28 22:17:00,
2013-03-28 17:22:00,70.5,56.9,30.11,South,175,17.0,17.0,62,0.00,,,0.00,Wunderground v.1.15,2013-03-28 22:22:00,
2013-03-28 17:27:00,70.4,56.8,30.10,SSE,152,18.0,19.0,62,0.00,,,0.00,Wunderground v.1.15,2013-03-28 22:27:00,
2013-03-28 17:32:00,70.4,56.8,30.10,SSE,149,17.0,18.0,62,0.00,,,0.00,Wunderground v.1.15,2013-03-28 22:32:00,
2013-03-28 17:37:00,70.3,57.1,30.10,SE,143,17.0,18.0,63,0.00,,,0.00,Wunderground v.1.15,2013-03-28 22:37:00,
2013-03-28 17:42:00,70.3,57.1,30.11,SSE,151,16.0,17.0,63,0.00,,,0.00,Wunderground v.1.15,2013-03-28 22:42:00,
2013-03-28 17:47:00,70.5,57.3,30.10,South,172,17.0,22.0,63,0.00,,,0.00,Wunderground v.1.15,2013-03-28 22:47:00,
2013-03-28 17:52:00,70.9,57.2,30.10,SSE,154,19.0,19.0,62,0.00,,,0.00,Wunderground v.1.15,2013-03-28 22:52:00,
2013-03-28 18:02:00,70.6,56.5,30.10,SSE,168,19.0,19.0,61,0.00,,,0.00,Wunderground v.1.15,2013-03-28 23:02:00,
2013-03-28 18:07:00,70.1,56.9,30.10,SSE,158,20.0,20.0,63,0.00,,,0.00,Wunderground v.1.15,2013-03-28 23:07:00,
2013-03-28 18:12:00,69.7,57.0,30.10,SE,132,19.0,19.0,64,0.00,,,0.00,Wunderground v.1.15,2013-03-28 23:12:00,
2013-03-28 18:22:00,69.6,56.9,30.11,SE,144,17.0,22.0,64,0.00,,,0.00,Wunderground v.1.15,2013-03-28 23:22:00,
2013-03-28 18:27:00,69.3,57.0,30.11,SE,142,19.0,22.0,65,0.00,,,0.00,Wunderground v.1.15,2013-03-28 23:27:00,
2013-03-28 18:32:00,69.2,56.9,30.11,SE,142,19.0,19.0,65,0.00,,,0.00,Wunderground v.1.15,2013-03-28 23:32:00,
2013-03-28 18:37:00,69.2,56.9,30.11,South,173,17.0,19.0,65,0.00,,,0.00,Wunderground v.1.15,2013-03-28 23:37:00,
2013-03-28 18:42:00,69.5,57.2,30.11,SE,138,17.0,17.0,65,0.00,,,0.00,Wunderground v.1.15,2013-03-28 23:42:00,
2013-03-28 18:52:00,69.4,57.1,30.11,South,172,18.0,18.0,65,0.00,,,0.00,Wunderground v.1.15,2013-03-28 23:52:00,
2013-03-28 19:02:00,69.2,57.4,30.11,South,172,15.0,17.0,66,0.00,,,0.00,Wunderground v.1.15,2013-03-29 00:02:00,
2013-03-28 19:07:00,69.2,57.4,30.11,South,177,16.0,22.0,66,0.00,,,0.00,Wunderground v.1.15,2013-03-29 00:07:00,
2013-03-28 19:12:00,69.4,57.5,30.11,South,172,16.0,21.0,66,0.00,,,0.00,Wunderground v.1.15,2013-03-29 00:12:00,
2013-03-28 19:17:00,69.4,57.5,30.11,SSE,155,16.0,21.0,66,0.00,,,0.00,Wunderground v.1.15,2013-03-29 00:17:00,
2013-03-28 19:27:00,69.1,57.3,30.11,SSE,165,13.0,14.0,66,0.00,,,0.00,Wunderground v.1.15,2013-03-29 00:27:00,
2013-03-28 19:32:00,68.7,57.3,30.12,SSE,149,13.0,13.0,67,0.00,,,0.00,Wunderground v.1.15,2013-03-29 00:32:00,
2013-03-28 19:37:00,68.3,57.3,30.11,SE,145,13.0,13.0,68,0.00,,,0.00,Wunderground v.1.15,2013-03-29 00:37:00,
2013-03-28 19:42:00,67.8,56.9,30.12,SSE,153,13.0,13.0,68,0.00,,,0.00,Wunderground v.1.15,2013-03-29 00:42:00,
2013-03-28 19:47:00,67.5,57.0,30.12,SSE,153,13.0,16.0,69,0.00,,,0.00,Wunderground v.1.15,2013-03-29 00:47:00,
2013-03-28 19:57:00,67.2,56.7,30.12,SSE,149,13.0,13.0,69,0.00,,,0.00,Wunderground v.1.15,2013-03-29 00:57:00,
2013-03-28 20:07:00,67.0,56.9,30.12,SE,143,14.0,14.0,70,0.00,,,0.00,Wunderground v.1.15,2013-03-29 01:07:00,
2013-03-28 20:12:00,66.8,56.7,30.13,SE,131,14.0,14.0,70,0.00,,,0.00,Wunderground v.1.15,2013-03-29 01:12:00,
2013-03-28 20:17:00,66.7,56.6,30.13,SSE,162,13.0,26.0,70,0.00,,,0.00,Wunderground v.1.15,2013-03-29 01:17:00,
2013-03-28 20:22:00,66.6,56.9,30.13,SE,143,13.0,26.0,71,0.00,,,0.00,Wunderground v.1.15,2013-03-29 01:22:00,
2013-03-28 20:37:00,66.3,57.0,30.12,ESE,116,14.0,26.0,72,0.00,,,0.00,Wunderground v.1.15,2013-03-29 01:37:00,
2013-03-28 20:42:00,66.1,56.8,30.12,SSE,147,14.0,26.0,72,0.00,,,0.00,Wunderground v.1.15,2013-03-29 01:42:00,
2013-03-28 20:47:00,65.9,57.0,30.12,SE,140,14.0,26.0,73,0.00,,,0.00,Wunderground v.1.15,2013-03-29 01:47:00,
2013-03-28 20:52:00,65.7,56.8,30.12,SE,140,14.0,14.0,73,0.00,,,0.00,Wunderground v.1.15,2013-03-29 01:52:00,
2013-03-28 21:02:00,65.6,57.1,30.13,SSE,158,16.0,26.0,74,0.00,,,0.00,Wunderground v.1.15,2013-03-29 02:02:00,
2013-03-28 21:07:00,65.4,56.9,30.13,SE,144,16.0,26.0,74,0.00,,,0.00,Wunderground v.1.15,2013-03-29 02:07:00,
2013-03-28 21:17:00,65.4,56.9,30.13,SE,141,14.0,26.0,74,0.00,,,0.00,Wunderground v.1.15,2013-03-29 02:17:00,
2013-03-28 21:22:00,65.3,56.8,30.12,SE,129,14.0,14.0,74,0.00,,,0.00,Wunderground v.1.15,2013-03-29 02:22:00,
2013-03-28 21:27:00,65.1,56.6,30.13,SE,145,14.0,26.0,74,0.00,,,0.00,Wunderground v.1.15,2013-03-29 02:27:00,
2013-03-28 21:37:00,64.8,56.7,30.13,SE,133,12.0,26.0,75,0.00,,,0.00,Wunderground v.1.15,2013-03-29 02:37:00,
2013-03-28 21:42:00,64.7,57.0,30.13,SE,139,12.0,26.0,76,0.00,,,0.00,Wunderground v.1.15,2013-03-29 02:42:00,
2013-03-28 21:47:00,64.8,56.7,30.13,SE,130,13.0,26.0,75,0.00,,,0.00,Wunderground v.1.15,2013-03-29 02:47:00,
2013-03-28 21:52:00,64.7,56.6,30.13,SSE,149,14.0,26.0,75,0.00,,,0.00,Wunderground v.1.15,2013-03-29 02:52:00,
2013-03-28 21:57:00,64.6,56.9,30.14,SE,138,14.0,26.0,76,0.00,,,0.00,Wunderground v.1.15,2013-03-29 02:57:00,
2013-03-28 22:02:00,64.3,56.6,30.14,SE,139,12.0,12.0,76,0.00,,,0.00,Wunderground v.1.15,2013-03-29 03:02:00,
2013-03-28 22:07:00,64.2,56.5,30.14,SSE,149,10.0,26.0,76,0.00,,,0.00,Wunderground v.1.15,2013-03-29 03:07:00,
2013-03-28 22:12:00,64.0,56.6,30.14,SE,144,11.0,11.0,77,0.00,,,0.00,Wunderground v.1.15,2013-03-29 03:12:00,
2013-03-28 22:17:00,63.8,56.4,30.13,SE,134,10.0,26.0,77,0.00,,,0.00,Wunderground v.1.15,2013-03-29 03:17:00,
2013-03-28 22:22:00,63.6,56.3,30.13,SE,144,10.0,26.0,77,0.00,,,0.00,Wunderground v.1.15,2013-03-29 03:22:00,
2013-03-28 22:27:00,63.7,56.4,30.14,SE,134,11.0,26.0,77,0.00,,,0.00,Wunderground v.1.15,2013-03-29 03:27:00,
2013-03-28 22:32:00,63.6,56.3,30.14,SE,133,10.0,26.0,77,0.00,,,0.00,Wunderground v.1.15,2013-03-29 03:32:00,
2013-03-28 22:42:00,63.3,56.3,30.14,SSE,151,10.0,26.0,78,0.00,,,0.00,Wunderground v.1.15,2013-03-29 03:42:00,
2013-03-28 22:47:00,63.1,56.1,30.14,SE,137,10.0,26.0,78,0.00,,,0.00,Wunderground v.1.15,2013-03-29 03:47:00,
2013-03-28 22:52:00,63.0,56.0,30.13,SE,144,11.0,26.0,78,0.00,,,0.00,Wunderground v.1.15,2013-03-29 03:52:00,
2013-03-28 22:57:00,63.1,56.1,30.12,SE,132,12.0,26.0,78,0.00,,,0.00,Wunderground v.1.15,2013-03-29 03:57:00,
2013-03-28 23:02:00,63.2,56.2,30.12,SE,138,14.0,26.0,78,0.00,,,0.00,Wunderground v.1.15,2013-03-29 04:02:00,
2013-03-28 23:07:00,63.3,56.3,30.13,SSE,147,15.0,26.0,78,0.00,,,0.00,Wunderground v.1.15,2013-03-29 04:07:00,
2013-03-28 23:12:00,63.4,56.4,30.13,SE,146,14.0,26.0,78,0.00,,,0.00,Wunderground v.1.15,2013-03-29 04:12:00,
2013-03-28 23:17:00,63.8,56.4,30.13,SE,146,15.0,26.0,77,0.00,,,0.00,Wunderground v.1.15,2013-03-29 04:17:00,
2013-03-28 23:22:00,63.9,56.5,30.13,SSE,149,15.0,26.0,77,0.00,,,0.00,Wunderground v.1.15,2013-03-29 04:22:00,
2013-03-28 23:27:00,64.2,56.5,30.13,SE,141,16.0,26.0,76,0.00,,,0.00,Wunderground v.1.15,2013-03-29 04:27:00,
2013-03-28 23:32:00,64.2,56.5,30.13,SSE,147,16.0,26.0,76,0.00,,,0.00,Wunderground v.1.15,2013-03-29 04:32:00,
2013-03-28 23:37:00,64.3,56.6,30.13,SE,144,17.0,26.0,76,0.00,,,0.00,Wunderground v.1.15,2013-03-29 04:37:00,
2013-03-28 23:47:00,64.1,56.4,30.13,SE,144,16.0,18.0,76,0.00,,,0.00,Wunderground v.1.15,2013-03-29 04:47:00,
2013-03-28 23:52:00,63.9,56.5,30.13,SE,146,16.0,16.0,77,0.00,,,0.00,Wunderground v.1.15,2013-03-29 04:52:00,